Yakima, WA
on Tuesday, February 5, 2013

Tuesday
Previous Day Next Day
Daily Summary
 ActualAverageRecord
Temperature
Mean Temperature °F 34°F  
Max Temperature 57°F 44°F 58°F (1991)
Min Temperature 27°F 25°F -7°F (1949)
Degree Days
Heating Degree Days 23 31  
Month to date heating degree days 125 155  
Since 1 July heating degree days 3394 3873  
Cooling Degree Days 0 0  
Month to date cooling degree days 0 0  
Year to date cooling degree days 0 0  
Moisture
Dew Point 31°F   
Average Humidity 64    
Maximum Humidity 92    
Minimum Humidity 35    
Precipitation
Precipitation 0.00 in 0.03 in 0.24 in (1996)
Month to date precipitation 0.00 0.14  
Year to date precipitation 0.10 1.28  
Snow
Snow 0.00 in 0.10 in 1.60 in (1996)
Month to date snowfall 0.0 0.6  
Year to date snowfall 1.1 5.9  
Since 1 July snowfall 15.3 18.9  
Snow Depth 0.00 in   
Wind
Wind Speed 5 mph   
Max Wind Speed 26 mph   
Max Gust Speed 36 mph   
Visibility 8 miles   
Events     

Key: T is trace of precipitation, MM is missing value
Source: NWS Daily Summary
Time(PST)TemperatureDew PointHumidity Pressure Visibility Wind DirectionWind SpeedGust SpeedPrecipitationEvents Conditions
12:53 AM 36.0°F 32.0°F 86% 29.94 in 7.0 miles Calm Calm - N/A   Overcast
1:53 AM 34.0°F 30.0°F 85% 29.94 in 7.0 miles NW 8.1 mph - N/A   Clear
2:53 AM 34.0°F 30.0°F 85% 29.91 in 7.0 miles WNW 5.8 mph - N/A   Clear
3:53 AM 32.0°F 28.0°F 85% 29.91 in 7.0 miles NW 3.5 mph - N/A   Clear
4:53 AM 28.0°F 25.0°F 88% 29.91 in 5.0 miles Calm Calm - N/A   Clear
5:53 AM 28.9°F 26.1°F 89% 29.90 in 6.0 miles WSW 4.6 mph - N/A   Clear
6:53 AM 28.9°F 26.1°F 89% 29.90 in 6.0 miles WNW 6.9 mph - N/A   Clear
7:53 AM 33.1°F 30.0°F 89% 29.91 in 5.0 miles Calm Calm - N/A   Mostly Cloudy
8:53 AM 34.0°F 30.9°F 89% 29.92 in 5.0 miles Calm Calm - N/A   Mostly Cloudy
9:53 AM 36.0°F 32.0°F 86% 29.91 in 6.0 miles Calm Calm - N/A   Overcast
10:53 AM 37.9°F 32.0°F 79% 29.90 in 6.0 miles Calm Calm - N/A   Haze
11:53 AM 45.0°F 34.0°F 65% 29.88 in 8.0 miles Calm Calm - N/A   Scattered Clouds
12:53 PM 50.0°F 36.0°F 59% 29.86 in 10.0 miles Calm Calm - N/A   Scattered Clouds
1:53 PM 53.1°F 36.0°F 52% 29.84 in 10.0 miles Calm Calm - N/A   Scattered Clouds
2:53 PM 55.9°F 32.0°F 40% 29.84 in 10.0 miles Calm Calm - N/A   Mostly Cloudy
3:53 PM 55.0°F 28.0°F 35% 29.85 in 10.0 miles WSW 9.2 mph - N/A   Scattered Clouds
4:53 PM 50.0°F 34.0°F 54% 29.86 in 10.0 miles SSW 15.0 mph 24.2 mph N/A   Mostly Cloudy
5:53 PM 48.0°F 32.0°F 54% 29.87 in 10.0 miles SSW 15.0 mph 21.9 mph N/A   Partly Cloudy
6:53 PM 45.0°F 30.9°F 58% 29.88 in 10.0 miles Variable 3.5 mph - N/A   Clear
7:18 PM 46.4°F 30.2°F 53% 29.86 in 10.0 miles SSW 12.7 mph 24.2 mph N/A   Clear
7:53 PM 46.9°F 30.9°F 54% 29.88 in 10.0 miles SSW 15.0 mph 20.7 mph N/A   Clear
8:53 PM 46.0°F 33.1°F 61% 29.88 in 10.0 miles SSW 24.2 mph 35.7 mph N/A   Clear
9:53 PM 44.1°F 32.0°F 63% 29.93 in 10.0 miles Calm Calm - N/A   Clear
10:53 PM 39.2°F 30.2°F 70% 29.91 in 10.0 miles NW 3.5 mph - N/A   Clear
11:53 PM 33.8°F 28.4°F 81% 29.93 in 10.0 miles WNW 5.8 mph - N/A   Partly Cloudy
Moon Phase
Feb. 05 Feb. 10 Feb. 17 Feb. 25 Mar. 04
Sunrise:07:20 AM (PST) Moon Rise:03:14 AM (PST)2/5
Sunset:05:12 PM (PST) Moon Set:12:28 PM (PST)2/5

Copyright © 2014 The Weather Underground, Inc.